TimeCST,TemperatureF,Dew PointF,Humidity,Sea Level PressureIn,VisibilityMPH,Wind Direction,Wind SpeedMPH,Gust SpeedMPH,PrecipitationIn,Events,Conditions,WindDirDegrees,DateUTC
12:15 AM,42.3,37.4,83,30.06,10.0,West,8.1,-,N/A,,Clear,270,2012-11-20 06:15:00
12:35 AM,41.0,36.3,83,30.06,10.0,West,5.8,-,N/A,,Clear,270,2012-11-20 06:35:00
12:55 AM,39.9,35.6,85,30.06,10.0,West,5.8,-,N/A,,Clear,280,2012-11-20 06:55:00
1:15 AM,40.3,36.3,86,30.06,10.0,West,6.9,-,N/A,,Clear,280,2012-11-20 07:15:00
1:35 AM,40.3,36.0,85,30.06,10.0,WNW,8.1,-,N/A,,Clear,290,2012-11-20 07:35:00
1:55 AM,41.9,37.0,83,30.07,10.0,WNW,8.1,-,N/A,,Clear,300,2012-11-20 07:55:00
2:15 AM,41.4,36.7,83,30.07,10.0,WNW,8.1,-,N/A,,Clear,300,2012-11-20 08:15:00
2:35 AM,40.3,36.1,85,30.07,10.0,WNW,6.9,-,N/A,,Clear,300,2012-11-20 08:35:00
6:15 AM,40.5,36.5,86,30.13,7.0,NW,6.9,-,N/A,,Clear,320,2012-11-20 12:15:00
6:35 AM,40.1,36.5,87,30.14,7.0,NW,6.9,-,N/A,,Clear,320,2012-11-20 12:35:00
6:55 AM,39.6,36.1,88,30.14,7.0,NW,5.8,-,N/A,,Clear,320,2012-11-20 12:55:00
7:15 AM,39.0,35.6,88,30.15,7.0,NW,5.8,-,N/A,,Clear,310,2012-11-20 13:15:00
7:35 AM,39.2,36.0,88,30.15,5.0,NW,6.9,-,N/A,,Clear,310,2012-11-20 13:35:00
7:55 AM,39.4,36.3,89,30.15,5.0,NW,9.2,-,N/A,,Clear,310,2012-11-20 13:55:00
8:15 AM,40.3,36.7,87,30.16,5.0,NW,10.4,-,N/A,,Clear,310,2012-11-20 14:15:00
8:35 AM,41.2,37.0,85,30.16,7.0,NW,9.2,-,N/A,,Clear,320,2012-11-20 14:35:00
8:55 AM,42.8,38.1,84,30.16,7.0,NW,6.9,-,N/A,,Clear,320,2012-11-20 14:55:00
9:15 AM,44.2,38.8,81,30.16,7.0,NW,6.9,-,N/A,,Clear,320,2012-11-20 15:15:00
9:35 AM,45.5,39.0,78,30.17,7.0,NW,5.8,-,N/A,,Clear,310,2012-11-20 15:35:00
9:55 AM,46.9,39.6,76,30.18,10.0,NW,9.2,-,N/A,,Clear,310,2012-11-20 15:55:00
10:15 AM,47.7,40.1,75,30.18,10.0,WNW,5.8,-,N/A,,Clear,290,2012-11-20 16:15:00
10:35 AM,49.8,40.5,70,30.18,10.0,NW,5.8,-,N/A,,Clear,310,2012-11-20 16:35:00
10:55 AM,51.4,41.0,68,30.18,10.0,WNW,5.8,-,N/A,,Clear,290,2012-11-20 16:55:00
11:15 AM,52.7,41.2,65,30.18,10.0,WNW,5.8,-,N/A,,Clear,300,2012-11-20 17:15:00
11:35 AM,54.7,41.4,61,30.17,10.0,NW,6.9,-,N/A,,Clear,310,2012-11-20 17:35:00
11:55 AM,55.9,41.0,57,30.17,10.0,NW,3.5,-,N/A,,Clear,310,2012-11-20 17:55:00
12:15 PM,57.4,41.7,56,30.17,10.0,NW,4.6,-,N/A,,Clear,320,2012-11-20 18:15:00
12:35 PM,58.3,41.4,53,30.16,10.0,WNW,5.8,-,N/A,,Clear,300,2012-11-20 18:35:00
12:55 PM,59.0,41.2,52,30.16,10.0,NW,5.8,-,N/A,,Clear,320,2012-11-20 18:55:00
1:15 PM,59.7,41.4,51,30.15,10.0,NW,6.9,-,N/A,,Clear,320,2012-11-20 19:15:00
1:35 PM,60.3,41.7,50,30.15,10.0,WNW,6.9,-,N/A,,Clear,300,2012-11-20 19:35:00
2:15 PM,61.2,41.5,48,30.14,10.0,West,5.8,-,N/A,,Clear,260,2012-11-20 20:15:00
2:35 PM,61.3,40.5,46,30.14,10.0,West,4.6,-,N/A,,Clear,280,2012-11-20 20:35:00
2:55 PM,61.5,40.3,46,30.14,10.0,West,4.6,-,N/A,,Clear,270,2012-11-20 20:55:00
3:15 PM,61.7,39.7,44,30.15,10.0,WNW,5.8,-,N/A,,Clear,290,2012-11-20 21:15:00
3:35 PM,61.2,40.5,47,30.15,10.0,Calm,Calm,-,N/A,,Clear,0,2012-11-20 21:35:00
3:55 PM,60.1,39.0,46,30.15,10.0,WNW,4.6,-,N/A,,Clear,300,2012-11-20 21:55:00
4:15 PM,59.0,38.8,47,30.15,10.0,Calm,Calm,-,N/A,,Clear,0,2012-11-20 22:15:00
4:35 PM,57.9,39.2,50,30.15,10.0,Calm,Calm,-,N/A,,Clear,0,2012-11-20 22:35:00
4:55 PM,57.6,38.8,50,30.15,10.0,Calm,Calm,-,N/A,,Clear,0,2012-11-20 22:55:00
5:15 PM,54.7,38.5,54,30.15,10.0,Calm,Calm,-,N/A,,Clear,0,2012-11-20 23:15:00
5:35 PM,47.7,37.2,67,30.16,10.0,Calm,Calm,-,N/A,,Clear,0,2012-11-20 23:35:00
5:55 PM,48.2,37.4,66,30.16,10.0,Calm,Calm,-,N/A,,Clear,0,2012-11-20 23:55:00
6:15 PM,46.0,36.7,70,30.16,10.0,South,3.5,-,N/A,,Clear,170,2012-11-21 00:15:00
6:35 PM,48.0,36.7,65,30.17,10.0,Calm,Calm,-,N/A,,Clear,0,2012-11-21 00:35:00
6:55 PM,47.8,36.5,65,30.17,10.0,SSW,3.5,-,N/A,,Clear,200,2012-11-21 00:55:00
7:15 PM,44.6,36.5,73,30.18,10.0,Calm,Calm,-,N/A,,Clear,0,2012-11-21 01:15:00
7:35 PM,42.8,36.0,77,30.18,10.0,Calm,Calm,-,N/A,,Clear,0,2012-11-21 01:35:00
7:55 PM,47.8,38.3,70,30.18,10.0,South,4.6,-,N/A,,Clear,190,2012-11-21 01:55:00
8:15 PM,41.9,35.6,78,30.18,10.0,South,4.6,-,N/A,,Clear,180,2012-11-21 02:15:00
8:35 PM,43.9,36.7,76,30.17,10.0,South,5.8,-,N/A,,Clear,170,2012-11-21 02:35:00
8:55 PM,43.3,37.0,78,30.18,10.0,South,5.8,-,N/A,,Clear,190,2012-11-21 02:55:00
9:15 PM,44.4,37.0,75,30.18,10.0,SSW,5.8,-,N/A,,Clear,200,2012-11-21 03:15:00
9:35 PM,43.3,36.5,77,30.18,10.0,SSW,6.9,-,N/A,,Clear,210,2012-11-21 03:35:00
9:55 PM,43.9,37.2,77,30.18,10.0,SSW,5.8,-,N/A,,Clear,200,2012-11-21 03:55:00
10:15 PM,43.0,36.5,78,30.18,10.0,South,6.9,-,N/A,,Clear,190,2012-11-21 04:15:00
10:35 PM,41.9,35.6,78,30.17,10.0,South,5.8,-,N/A,,Clear,180,2012-11-21 04:35:00
10:55 PM,43.5,36.7,77,30.17,10.0,South,6.9,-,N/A,,Clear,180,2012-11-21 04:55:00
11:15 PM,44.1,36.9,76,30.17,10.0,SSW,6.9,-,N/A,,Clear,200,2012-11-21 05:15:00
11:35 PM,40.1,35.4,83,30.18,10.0,SSW,6.9,-,N/A,,Clear,200,2012-11-21 05:35:00
11:55 PM,41.0,36.0,82,30.18,10.0,SSW,8.1,-,N/A,,Clear,200,2012-11-21 05:55:00